Fort Wayne Police Department
Fort Wayne Police Department
Emergencies Call: 911
Non-Emergencies: (260) 427-1222
report drug house

Daily Activity Logs

Activity Log for December 30, 2013 Community Search

Incident Time Nature Address
13F183959 00:03:51 46 DOMESTIC 5300 GOSHEN RD
13F183960 00:05:01 30 TRAFFIC STOP 600 PONTIAC ST E & HANNA ST S
13F183961 00:05:34 911 HANG UP 400 MAIN ST W
13F183962 00:18:10 911 HANG UP 1100 GLASGOW AVE
13F183963 00:20:38 44LM 1800 HOBSON RD
13F183965 00:26:30 46,96 3600 OAKPARK DR
13F183964 00:26:31 30 TRAFFIC STOP 3400 BROOKLYN AVE & NUTTMAN AVE
13F183966 00:33:56 46 DOMESTIC 4000 ANTHONY BLVD S
13F183967 00:35:31 48,35 800 OAKLAWN CT
13F183968 00:36:22 44LM 3900 NEWPORT AVE
13F183969 01:00:11 63 CONTACT 3900 WHITFIELD CHASE
13F183970 01:05:08 15 ASSIST 4800 REED ST & PETTIT AVE E
13F183971 01:07:01 129 3900 HUTH DR
13F183972 01:07:13 129 2900 WOOD KNOLL LN
13F183973 01:09:08 43 DISTURBANCE 500 CANDLELITE CT
13F183974 01:16:30 129 10000 SERPENTINE CV
13F183975 01:16:54 129 2800 EMERALD LAKE DR
13F183977 01:19:58 111D DOG 2000 HUFFMAN BLVD
13F183976 01:20:38 48 SUSPICIOUS 3900 OLD MILL RD
13F183978 01:22:31 129 1500 LAKEWOOD DR
13F183979 01:23:42 911 HANG UP 1100 HARRISON ST S
13F183980 01:25:04 46 DOMESTIC 100 WASHINGTON CENTER RD W
13F183981 01:42:47 15 ASSIST 3900 CALHOUN ST S & FOSTER PKWY E
13F183982 01:50:17 46,96 2800 DREXEL AVE
13F183983 01:55:08 48,36 4300 HOMESTEAD RD
13F183984 02:36:15 48 SUSPICIOUS 6400 COVINGTON RD
13F183985 02:36:41 911 HANG UP 4500 CALHOUN ST S
13F183986 02:41:19 911 HANG UP 5300 BROOKFARM PL
13F183987 03:05:59 111D DOG 1700 APPLE GLEN BLVD
13F183988 03:10:33 30 TRAFFIC STOP 3400 AIRPORT EXPRESSWAY & AIRPORT
13F183989 03:21:37 46 DOMESTIC 600 FIFTH ST
13F183990 03:25:57 30 TRAFFIC STOP 5100 HESSEN CASSEL RD & ASHCROFT D
13F183991 03:28:49 26PP PINNED 2400 PAULDING RD E
13F183996 03:43:00 50 BURGLARY 400 MASTERSON AVE E
13F183992 03:44:48 48 SUSPICIOUS 900 OAKLAWN CT
13F183993 03:46:15 48 SUSPICIOUS 100 SEMINOLE CIR N
13F183995 03:52:15 42 INTOX PERSON 3700 ENGLE RD & ARDMORE AVE
13F183994 03:52:25 101 OPEN DOOR 1600 HOBSON RD
13F183997 04:04:30 911 HANG UP 11100 BITTER DELL CT
13F183998 04:39:00 48 SUSPICIOUS 4900 ARLINGTON PARK BLVD W & COLLB
13F183999 04:39:40 25HS HIT SKIP 3800 STANTON HALL PKWY
13F184000 04:59:11 129 4100 HARRIS MEADOW PL
13F184001 05:00:43 48,36 3000 SMITH ST
13F184002 05:10:37 65A SUICIDE ATT 2500 HENSCH ST
13F184003 05:23:54 129 1900 BROADMOOR AVE
13F184004 05:25:59 129 1900 BROADMOOR AVE
13F184005 05:51:12 33,34 200 STATE BLVD W & CASS ST
13F184006 06:08:46 20 PROBLEM UNK 100 JEFFERSON BLVD E & CALHOUN ST
13F184007 06:28:22 40A AUDIBLE 10900 SHERRELWOOD CT
13F184008 06:42:27 16V PICKUP VID 00 MAIN ST E
13F184009 06:46:28 40A AUDIBLE 4100 JEFFERSON BLVD W
13F184010 06:50:19 48,36 6200 COVINGTON RD
13F184011 06:51:39 25 PD ACCIDENT 600 SPRING ST & KELLY DR
13F184012 07:05:24 911 HANG UP 3900 RAYMOND AVE
13F184013 07:15:32 51 THEFT 4100 CLINTON ST N
13F184016 07:15:58 EMS 3800 WYANDOTTE DR
13F184014 07:17:38 40A AUDIBLE 2500 WEST DR
13F184015 07:23:36 46,96 5100 SMITH ST
13F184017 07:31:27 48 SUSPICIOUS 900 GOSHEN AVE
13F184018 07:32:19 25 PD ACCIDENT 8500 JEFFERSON BLVD W & COVENTRY L
13F184019 07:32:22 50 BURGLARY 1000 COLISEUM BLVD N
13F184020 07:43:00 911 HANG UP 300 BERRY ST W
13F184021 07:43:14 25 PD ACCIDENT 3700 WASHINGTON BLVD E
13F184022 07:44:49 26 PI ACCIDENT 2500 BUTLER RD & CEDAR RIDGE RUN
13F184023 07:49:58 34 TRAFF HAZARD 3100 SOUTHWAYNE AVE & KINNAIRD AVE
13F184024 07:51:48 23,35 VAND VEH 1300 ILLSLEY DR
13F184025 08:12:48 30 TRAFFIC STOP 100 DEWALD ST E & CALHOUN ST S
13F184026 08:19:32 101 OPEN DOOR 2500 SOUTHWAYNE AVE
13F184027 08:19:45 41,36 4100 WASHINGTON CENTER RD W & GOSH
13F184028 08:20:32 40I INTRUSION 8200 ROCKBROOK CT
13F184029 08:24:16 50,ATTEMPTED 1300 WOODBINE PL
13F184031 08:29:06 46,96 3000 MCARTHUR DR
13F184032 08:32:50 911 HANG UP 3100 ANTHONY BLVD S
13F184034 08:34:29 911 HANG UP 3100 OLIVER ST
13F184037 08:39:30 911 HANG UP 2400 LAFAYETTE ST S
13F184035 08:40:30 34 TRAFF HAZARD 7100 LAFAYETTE ST S & GARY ST
13F184040 08:51:01 40A AUDIBLE 4500 LOWER HUNTINGTON RD
13F184042 08:54:31 46 DOMESTIC 3500 COLISEUM BLVD W
13F184047 09:04:05 103 UNWANTED 3400 MONTAGNE DR
13F184049 09:10:12 25,86 400 WASHINGTON BLVD W & FAIRFIELD
13F184051 09:12:17 17 MOTOR CHECK 900 COLISEUM BLVD W
13F184055 09:13:26 18 WORK TRAFFIC 10700 WINDSOR WOODS BLVD
13F184053 09:18:15 14 WARRANT 4600 WASHINGTON BLVD E
13F184058 09:24:10 26 PI ACCIDENT 10000 MAYSVILLE RD & CHAPEL RIDGE
13F184060 09:31:31 51 THEFT 3400 CENTENNIAL DR
13F184062 09:34:33 48,36 1800 DREXEL AVE & EUCLID AVE
13F184061 09:35:12 97 FOUND ITEMS 00 MAIN ST E
13F184063 09:41:29 911 HANG UP 800 REWILL DR
13F184064 09:46:41 38 LOST/STOLEN 6100 CATBIRD AVE
13F184065 09:47:16 51 THEFT 3300 COLISEUM BLVD W
13F184066 09:56:12 HARASSMENT 3200 ST JOE CENTER RD
13F184067 10:10:34 108 FOLLOWUP 3800 OLIVER ST
13F184068 10:11:22 40A AUDIBLE 6600 ST JOE RD
13F184069 10:12:06 25 PD ACCIDENT 4700 TRIER RD & REED RD
13F184076 10:15:08 17 MOTOR CHECK 2900 WASHINGTON BLVD E
13F184072 10:18:10 EMS 3700 HANNA ST S
13F184070 10:19:58 33,34 1100 AIRPORT EXPRESSWAY & LOWER HU
13F184071 10:20:14 911 HANG UP 1300 WASHINGTON CENTER RD W
13F184073 10:24:04 51 THEFT 2200 RANDALLIA DR
13F184074 10:27:45 25HS HIT SKIP 4300 LIMA RD & COLISEUM BLVD W
13F184075 10:28:30 30 TRAFFIC STOP 4000 UNION CHAPEL RD & DIEBOLD RD
13F184077 10:30:03 911 HANG UP 3900 ENOLA CT
13F184078 10:33:17 25 PD ACCIDENT 8400 LIMA RD & GILMORE DR
13F184081 10:35:59 911 HANG UP 4400 ARDMORE AVE
13F184079 10:37:12 129 300 FOURTH ST W & WELLS ST
13F184080 10:37:40 129 10900 SHERRELWOOD CT
13F184086 10:41:33 50 BURGLARY 7900 JEFFERSON BLVD W
13F184082 10:45:56 911 HANG UP 1300 PUTNAM ST
13F184083 10:47:13 50IP BURG I/P 1000 NUTTMAN AVE
13F184085 10:53:48 911 HANG UP 6400 HESSEN CASSEL RD
13F184084 10:54:04 25HS HIT SKIP 6000 STELLHORN RD
13F184088 11:03:27 51 THEFT 4900 HOAGLAND AVE
13F184087 11:04:12 37 PARKING VIOL 400 HUFFMAN ST
13F184089 11:09:46 63 CONTACT 2800 RAYMOND ST
13F184090 11:27:22 51 THEFT 2200 LUDWIG RD W
13F184094 11:32:42 39 STOLEN VEHIC 2900 LOWER HUNTINGTON RD
13F184091 11:34:18 37 PARKING VIOL 1400 FRANKLIN AVE
13F184092 11:34:31 911 HANG UP 3900 BEAVERBROOK DR
13F184093 11:35:17 911 HANG UP 4000 HESSEN CASSEL RD
13F184095 11:47:33 63 CONTACT 2900 GOSHEN RD & COLISEUM BLVD W
13F184097 11:58:39 48,36 4700 HESSEN CASSEL RD
13F184096 12:00:13 911 HANG UP 5400 MEXICO DR
13F184098 12:01:51 911 HANG UP 2700 SASSAFRAS CV
13F184099 12:03:29 66 72 HOUR 1900 CAREW ST
13F184102 12:07:12 63 CONTACT 1100 VANCE AVE
13F184100 12:10:47 129 9200 WHITESTONE CT
13F184105 12:11:46 108 FOLLOWUP 1600 HOBSON RD
13F184101 12:23:41 34 TRAFF HAZARD 4300 HILLEGAS RD & CALIFORNIA RD W
13F184103 12:30:15 51 THEFT 3500 FERNDALE DR
13F184104 12:31:26 129 5700 ARBOR AVE
13F184106 12:34:49 23JO 6400 COVINGTON RD
13F184107 12:36:40 1 MEET 00 MAIN ST E
13F184108 12:38:35 911 HANG UP 6100 CALHOUN ST S
13F184109 12:38:39 23,113 4900 AVONDALE DR
13F184110 12:40:46 48 SUSPICIOUS 3200 SMITH ST
13F184111 12:42:21 48 SUSPICIOUS 6500 LIMA RD
13F184112 12:46:40 56 MOLESTING 2700 STATE BLVD E
13F184113 12:50:02 25 PD ACCIDENT 3300 CHERRY LN
13F184114 12:52:12 51,35 1400 HIGH ST
13F184116 12:56:29 25 PD ACCIDENT 400 STATE BLVD W
13F184115 12:56:54 51 THEFT 4700 JASON DR
13F184117 12:58:15 50 BURGLARY 2500 THOMPSON AVE
13F184118 13:03:26 43 DISTURBANCE 5900 STELLHORN RD
13F184119 13:04:26 99 NARCOTICS 1600 COOK RD W
13F184120 13:06:37 37 PARKING VIOL 1200 TILLMAN RD E & LAFAYETTE ST S
13F184122 13:06:48 48,36 1100 LAFAYETTE ST S & LEWIS ST E
13F184123 13:09:23 911 HANG UP 1500 LUDWIG RD W
13F184124 13:10:09 911 HANG UP 500 JEFFERSON BLVD E
13F184125 13:14:30 70 HOUSE FIRE 10700 WINDSOR WOODS BLVD
13F184127 13:16:21 66V MENTAL VIOL 6200 HIGHGATE PL
13F184126 13:16:25 70 HOUSE FIRE 10700 WINDSOR WOODS BLVD
13F184129 13:16:53 24 MISSING PERS 2800 HOAGLAND AVE
13F184128 13:18:20 66V MENTAL VIOL 800 PELHAM DR
13F184131 13:20:35 911 HANG UP 5600 COLDWATER RD
13F184133 13:23:09 911 HANG UP 2200 HOLTON AVE
13F184130 13:23:57 51,35 2400 FAIRFIELD AVE
13F184132 13:24:36 911 HANG UP 500 AIRPORT EXPRESSWAY & FAIRFIELD
13F184134 13:27:12 25 PD ACCIDENT 1200 JEFFERSON BLVD W
13F184136 13:27:33 40A AUDIBLE 7500 ANTHONY BLVD S
13F184135 13:29:21 62 PARTY ARMED 7900 SERENITY DR
13F184138 13:31:20 108 FOLLOWUP 2500 KINGSTON PT
13F184137 13:34:11 17 MOTOR CHECK 8900 TRIER RD
13F184151 13:35:53 44LM 3300 CHEVIOT DR
13F184150 13:36:14 17 MOTOR CHECK 7000 STELLHORN RD
13F184145 13:38:11 16,97 600 MILDRED AVE
13F184139 13:38:24 EMS 4000 HEDWIG DR
13F184140 13:42:20 46 DOMESTIC 2300 BARCROFT CT
13F184166 13:43:29 35 PARKED VEHIC 5300 DENNISON DR & WILLMAN LN
13F184143 13:46:26 911 HANG UP 2700 INDIANA AVE
13F184141 13:48:23 15 ASSIST 00 MAIN ST E
13F184142 13:50:14 40A AUDIBLE 3200 LAKE AVE
13F184149 13:54:15 22RC RECOVERY 5100 WOODMARK DR
13F184153 13:54:27 1 MEET 700 COLUMBIA AVE
13F184146 13:55:49 911 HANG UP 900 LIBRARY PLAZA
13F184147 13:55:54 911 HANG UP 3500 COLISEUM BLVD E
13F184148 13:59:12 43 DISTURBANCE 4100 ANTHONY BLVD S
13F184152 14:00:21 102,TX THREATS 1400 SCHILLING AVE
13F184155 14:01:54 45 NEIGHBORHOOD 4800 REED ST
13F184154 14:03:27 33,34 3100 JEFFERSON BLVD W & LINDENWOOD
13F184156 14:04:15 51JO 600 LEWIS ST E
13F184158 14:05:14 50 BURGLARY 3900 NEWPORT AVE
13F184157 14:06:29 46,96 6200 STATE BLVD E
13F184209 14:07:37 1 MEET 7400 COLD SPRINGS BLVD
13F184160 14:09:27 50 BURGLARY 3500 LILLIE ST
13F184162 14:12:34 96JO 600 WASHINGTON BLVD W & BROADWAY
13F184159 14:13:46 00 MAIN ST E
13F184161 14:14:38 30 TRAFFIC STOP 3800 TAYLOR ST & COUNTRY CLUB RD
13F184163 14:17:21 16V PICKUP VID 00 MAIN ST E
13F184164 14:17:54 911 HANG UP 2400 GAY ST
13F184165 14:19:43 25 PD ACCIDENT 8200 JEFFERSON BLVD W & I 69 NB
13F184167 14:22:11 33,34 4000 HOBSON RD
13F184168 14:23:13 129 2900 ELMDALE DR
13F184169 14:26:52 30 TRAFFIC STOP 3700 TAYLOR ST & ARDMORE AVE
13F184173 14:27:36 911 HANG UP 3300 COLISEUM BLVD W
13F184170 14:28:06 46,96 3100 WELLS ST
13F184171 14:28:08 40P PANIC ALARM 4800 REED ST
13F184172 14:28:58 56 MOLESTING 400 DEWALD ST W
13F184174 14:31:26 911 HANG UP 3200 LIMERICK PL
13F184175 14:35:40 51 THEFT 4100 MEYER RD
13F184176 14:37:20 96IP 7500 SOUTHTOWN XING
13F184177 14:39:00 25 PD ACCIDENT 400 RUDISILL BLVD W
13F184178 14:41:37 30 TRAFFIC STOP 2300 CALLMAN AVE & COUNTRY CLUB RD
13F184179 14:43:49 30 TRAFFIC STOP 600 WALLACE ST E & HANNA ST S
13F184185 14:45:00 50 BURGLARY 2100 CHERI CT
13F184180 14:47:16 30 TRAFFIC STOP 900 IRENE AVE & SHERMAN BLVD
13F184181 14:51:10 30 TRAFFIC STOP 400 WALLACE ST E & CLAY ST
13F184183 14:53:20 911 HANG UP 6300 WINTER ST
13F184182 14:54:01 46,62 5300 GOSHEN RD
13F184184 14:55:34 911 HANG UP 300 LEITH ST W
13F184193 15:07:15 50 BURGLARY 1000 ARCHER AVE
13F184187 15:08:26 30 TRAFFIC STOP 4100 TAYLOR ST
13F184188 15:09:02 129 5300 REBECCA ST
13F184189 15:09:17 129 7900 HARRISBURG LN
13F184192 15:10:39 46 DOMESTIC 2500 STARDALE DR
13F184196 15:16:50 911 HANG UP 1100 BROADWAY
13F184194 15:19:25 911 HANG UP 2000 LYNN AVE
13F184195 15:19:46 911 HANG UP 5800 ANTHONY BLVD S
13F184198 15:20:16 43 DISTURBANCE 3200 DIPLOMAT DR
13F184200 15:21:14 17 MOTOR CHECK 8900 TRIER RD
13F184197 15:21:45 30 TRAFFIC STOP 200 ELIZABETH ST & CLINTON ST N
13F184199 15:23:51 51 THEFT 5100 TRUEMPER WAY
13F184201 15:30:03 14 WARRANT 1100 RIVERMET AVE
13F184202 15:31:10 46,96 1500 WAYNE ST E
13F184205 15:32:30 911 HANG UP 400 FAIRWICK LN
13F184203 15:32:47 129 3900 MCKINNIE AVE
13F184204 15:32:50 51,35 6300 LIMA RD
13F184207 15:34:26 911 HANG UP 1600 WINTER ST
13F184206 15:35:14 16V PICKUP VID 00 MAIN ST E
13F184210 15:37:42 911 HANG UP 2100 ARDMORE AVE
13F184208 15:37:44 46,96 400 THIRD ST
13F184211 15:39:37 23 VANDALISM 6900 SUNLAND DR
13F184213 15:42:32 25 PD ACCIDENT 900 CALHOUN ST S & WASHINGTON BLVD
13F184212 15:43:29 11C CAGE CAR 4200 COLDWATER RD
13F184214 15:43:39 26 PI ACCIDENT 600 SENATE AVE & HANNA ST S
13F184215 15:43:59 65T SUICIDE THR 6600 BARBARA JEAN CT
13F184217 15:45:22 911 HANG UP 500 JEFFERSON BLVD W
13F184216 15:46:18 38 LOST/STOLEN 500 TILLWATER LN
13F184219 15:52:06 16V PICKUP VID 00 MAIN ST E
13F184221 15:52:42 103 UNWANTED 1300 CLINTON ST S
13F184229 15:53:30 17 MOTOR CHECK 2700 JEFFERSON BLVD W
13F184222 15:55:29 30 TRAFFIC STOP 1100 JEFFERSON BLVD W & COLLEGE ST
13F184226 15:55:53 103 UNWANTED 3400 CHEVIOT DR
13F184223 15:57:18 48 SUSPICIOUS 2300 AIRPORT EXPRESSWAY & BLUFFTON
13F184224 15:58:21 62 PARTY ARMED 900 THIRD ST
13F184225 15:59:53 40H HOLDUP ALRM 300 JEFFERSON BLVD W
13F184227 16:02:39 14 WARRANT 1000 NORTHWOOD BLVD
13F184231 16:04:40 911 HANG UP 3200 DIPLOMAT DR
13F184233 16:04:50 50 BURGLARY 2700 HOBSON RD
13F184228 16:05:11 25HS HIT SKIP 4400 WEISSER PARK AVE
13F184230 16:08:25 23,35 VAND VEH 1700 REED RD
13F184232 16:11:39 51 THEFT 800 COLUMBIA AVE
13F184234 16:11:53 22I JUV INVEST 7200 MILL RUN DR
13F184262 16:14:10 51 THEFT 4100 HESSEN CASSEL RD
13F184237 16:14:46 102,TX THREATS 9800 HIDDEN VILLAGE PL
13F184236 16:16:27 25 PD ACCIDENT 9000 LIBERTY MILLS RD & JEFFERSON
13F184238 16:23:09 46,96 6200 LIMA RD
13F184239 16:27:51 65T SUICIDE THR 4100 STRATHDON DR
13F184240 16:32:18 25HS HIT SKIP 5100 COVENTRY PKWY
13F184242 16:34:07 911 HANG UP 2400 CALHOUN ST S
13F184241 16:36:30 51 THEFT 2500 JOHN ST
13F184244 16:40:48 48 SUSPICIOUS 6500 COVINGTON RD
13F184243 16:42:01 51 THEFT 7500 COLDWATER RD
13F184246 16:42:10 40P PANIC ALARM 5700 CHESTER BLVD
13F184251 16:42:51 23,35 VAND VEH 5300 COLDWATER RD
13F184245 16:42:57 27 RECKLESS DRI 1100 CLINTON ST S & LEWIS ST E
13F184247 16:44:07 25 PD ACCIDENT 300 COLISEUM BLVD E & COLDWATER RD
13F184248 16:45:51 50 BURGLARY 700 ROMY AVE
13F184249 16:48:03 27 RECKLESS DRI 100 MAIN ST E & CLINTON ST S
13F184250 16:49:30 48,36 5300 FAIRFIELD AVE
13F184252 16:56:25 51JO 1700 APPLE GLEN BLVD
13F184253 16:57:48 34 TRAFF HAZARD 2000 CALHOUN ST S
13F184260 16:57:53 911 HANG UP 6000 DECATUR RD
13F184254 16:59:39 129 4800 WOODMARK CT
13F184255 16:59:54 129 4200 KENFIELD DR
13F184258 17:01:43 103 UNWANTED 4500 PLAZA DR
13F184256 17:02:30 30 TRAFFIC STOP 1700 COLISEUM BLVD N & NEVADA AVE
13F184257 17:02:38 38 LOST/STOLEN 200 WASHINGTON CENTER RD W
13F184259 17:03:38 40A AUDIBLE 100 LEXINGTON AVE
13F184261 17:08:33 129 4500 MORNING WIND PL
13F184265 17:09:18 1 MEET 500 CLAYTON AVE
13F184263 17:13:13 129 9200 NORWICH CT
13F184264 17:16:29 30 TRAFFIC STOP 7300 LIMA RD & COOK RD W
13F184266 17:18:01 25 PD ACCIDENT 1700 APPLE GLEN BLVD
13F184267 17:19:53 48 SUSPICIOUS 3100 NUTTMAN AVE & FREEMAN ST
13F184268 17:23:52 33,34 1400 MAIN ST W
13F184269 17:27:39 14 WARRANT 100 LEXINGTON AVE
13F184270 17:30:45 63 CONTACT 300 CREIGHTON AVE W
13F184271 17:35:21 30 TRAFFIC STOP 3200 CHARLOTTE AVE & HOBSON RD
13F184272 17:35:56 51JO 6100 CLINTON ST N
13F184273 17:37:33 66 MENTALLY ILL 1400 SPRING ST
13F184274 17:45:02 39JO 1000 FOREST AVE
13F184275 17:53:53 16V PICKUP VID 00 MAIN ST E
13F184276 18:13:10 40 ALARM 2300 MAUMEE AVE
13F184277 18:14:03 23 VANDALISM 1100 BROADWAY
13F184278 18:16:28 51 THEFT 3000 GOSHEN RD
13F184279 18:22:03 11C CAGE CAR 10400 MAYSVILLE RD
13F184280 18:25:51 50 BURGLARY 3200 SEQUAYAH PASS
13F184281 18:31:37 30 TRAFFIC STOP 1700 PAULDING RD E & ANTHONY BLVD
13F184282 18:36:47 46 DOMESTIC 3200 WASHINGTON RD N
13F184284 18:39:45 1 MEET 500 CLAYTON AVE
13F184283 18:41:30 51 THEFT 5000 MIDLOTHIAN DR
13F184286 18:47:57 25HS HIT SKIP 4200 COLDWATER RD
13F184285 18:51:56 40A AUDIBLE 4300 SMITH ST
13F184287 18:53:46 43 DISTURBANCE 400 BUTLER ST W
13F184289 18:54:08 63 CONTACT 5000 WOODMARK DR
13F184288 18:54:17 15 ASSIST 1700 EDGEWATER AVE
13F184290 19:02:00 33,34 3400 MEYER RD & MOELLER RD
13F184291 19:03:54 45 NEIGHBORHOOD 4500 CALUMET AVE
13F184329 19:11:01 99 NARCOTICS 800 BELLE AVE
13F184293 19:11:22 48 SUSPICIOUS 4600 COLDWATER RD
13F184292 19:12:02 51 THEFT 00 MAIN ST E
13F184296 19:13:17 102 THREATS 1000 THIRD ST
13F184294 19:14:22 30 TRAFFIC STOP 1400 STATE BLVD E & FLORIDA DR
13F184297 19:19:09 63 CONTACT 4100 WARSAW ST
13F184299 19:24:53 48 SUSPICIOUS 2700 JOHN ST
13F184300 19:25:03 25 PD ACCIDENT 100 BERRY ST E & CALHOUN ST S
13F184298 19:25:38 66 MENTALLY ILL 5600 STANDISH DR
13F184301 19:26:47 911 HANG UP 3100 LIMERICK PL
13F184302 19:29:35 30 TRAFFIC STOP 5800 LIMA RD & WASHINGTON CENTER R
13F184304 19:31:19 22RN RUNAWAY 2700 COPPER HILL RUN
13F184303 19:32:03 911 HANG UP 3200 WOODGATE TRL
13F184306 19:36:21 911 HANG UP 5300 HANNA ST S
13F184305 19:37:09 34 TRAFF HAZARD 31100 I 69 NB
13F184307 19:38:08 25HS HIT SKIP 10400 PARKVIEW PLAZA DR & DUPONT R
13F184308 19:40:25 30 TRAFFIC STOP 600 CALHOUN ST S & MAIN ST E
13F184309 19:45:12 129 4600 WOODSTOCK DR
13F184311 19:46:45 911 HANG UP 2000 RIEDMILLER AVE
13F184310 19:46:58 48 SUSPICIOUS 900 CRESTWAY DR
13F184313 19:48:26 911 HANG UP 2400 TILLMAN RD E
13F184312 19:49:07 129 3400 DELRAY DR
13F184314 19:51:07 102 THREATS 2400 HARRISON ST S
13F184315 20:01:04 96JO 4500 KENILWORTH ST
13F184316 20:02:06 911 HANG UP 6200 GOODFELLOW DR
13F184317 20:07:41 46 DOMESTIC 600 LAVINA ST
13F184318 20:10:56 48,36 5800 COLDWATER RD
13F184319 20:16:28 46 DOMESTIC 3600 HARRISON ST S
13F184320 20:18:03 911 HANG UP 7500 BRADBURY AVE
13F184321 20:19:38 56 MOLESTING 7700 GATHINGS DR
13F184322 20:23:52 66 MENTALLY ILL 100 RILEY DR
13F184323 20:25:07 129 900 CARIBE BLVD
13F184324 20:31:00 129 7700 PREAKNESS CV
13F184325 20:31:49 911 HANG UP 100 CHAMBEAU RD
13F184326 20:33:16 65A SUICIDE ATT 600 MARSTON CT
13F184327 20:37:50 39R STOLEN RECO 3100 CRESCENT AVE & ANTHONY BLVD N
13F184338 20:39:13 102 THREATS 4600 HEATHERWIND DR
13F184328 20:42:02 113 SHOTS FIRED 600 RUDISILL BLVD W
13F184330 20:44:46 80 CIVIL INVEST 00 MAIN ST E
13F184331 20:45:34 75 PURSUIT 1600 WELLS ST & SPRING ST
13F184332 20:46:01 48 SUSPICIOUS 1300 HILLCREST DR
13F184333 20:50:52 911 HANG UP 3900 BOWSER AVE
13F184334 20:53:06 80 CIVIL INVEST 00 MAIN ST E
13F184335 20:53:49 30 TRAFFIC STOP 6200 LIMA RD
13F184336 20:54:42 911 HANG UP 5300 HOAGLAND AVE
13F184337 20:55:01 113 SHOTS FIRED 2800 WEISSER PARK AVE
13F184339 20:59:41 102 THREATS 3300 LILLIE ST
13F184340 21:01:39 44LM 7900 SERENITY DR
13F184341 21:07:56 103 UNWANTED 2400 NEW HAVEN AVE
13F184342 21:08:59 33,34 7300 JEFFERSON BLVD W & ENGLE RD
13F184344 21:09:10 911 HANG UP 3300 COLISEUM BLVD W
13F184343 21:10:02 30 TRAFFIC STOP 3000 QUEEN ST & EVANS ST
13F184345 21:15:45 113 SHOTS FIRED 8400 SPRING FOREST DR
13F184346 21:21:18 30 TRAFFIC STOP 1900 COLISEUM BLVD W & HARRIS RD
13F184347 21:21:37 43 DISTURBANCE 5900 TURTLE CREEK DR
13F184348 21:21:50 46 DOMESTIC 5300 HARRISON ST S
13F184349 21:23:44 1 MEET 2200 DUNKELBERG RD
13F184350 21:31:15 43,62 1100 COLISEUM BLVD N
13F184351 21:33:20 48 SUSPICIOUS 2200 WINDSONG CT
13F184354 21:36:43 34 TRAFF HAZARD 4000 ICE WAY & LIMA RD
13F184352 21:37:07 30 TRAFFIC STOP 8100 LIMA RD & NORTHLAND BLVD
13F184355 21:37:08 15 ASSIST 2500 FAIRFAX AVE E
13F184353 21:37:54 30 TRAFFIC STOP 7300 LIMA RD & COOK RD W
13F184363 21:38:49 16,97 1300 HILLCREST DR
13F184357 21:40:56 911 HANG UP 900 COOK RD E
13F184356 21:42:32 911 HANG UP 2100 HANNA ST S
13F184358 21:44:07 129 200 PETTIT AVE E
13F184359 21:44:36 129 200 PETTIT AVE E
13F184360 21:45:16 129 300 PETTIT AVE E
13F184361 21:45:38 129 300 PETTIT AVE E
13F184362 21:47:00 30 TRAFFIC STOP 5700 ST HENRYS LN & PAULDING RD E
13F184364 21:53:28 129 300 WILDWOOD AVE E
13F184365 21:56:17 129 1600 VENTURA LN
13F184367 21:58:41 50IP BURG I/P 9500 MOUND CREEK CV
13F184366 21:58:45 30 TRAFFIC STOP 6000 ILLINOIS RD & GETZ RD
13F184368 21:59:59 48 SUSPICIOUS 2100 BLUE HARBOR DR
13F184369 22:01:00 30 TRAFFIC STOP 4900 LIMA RD
13F184371 22:01:08 66 MENTALLY ILL 800 GOSHEN AVE
13F184370 22:01:55 30 TRAFFIC STOP 3500 GAYWOOD DR & HAMILTON AVE
13F184372 22:04:12 46 DOMESTIC 3200 WINGATE RUN
13F184373 22:06:50 113 SHOTS FIRED 2900 HARRISON ST S
13F184380 22:12:48 48,35 1800 THIRD ST & TYLER AVE
13F184374 22:13:20 129 4200 SOUTHWAYNE AVE
13F184379 22:13:44 44LM 1700 HOBSON RD
13F184375 22:14:22 30 TRAFFIC STOP 1100 JEFFERSON BLVD W
13F184376 22:15:50 26 PI ACCIDENT 2900 DREXEL AVE & TURPIE ST
13F184377 22:16:31 129 4300 ARLINGTON AVE
13F184378 22:16:57 EMS 6700 ANTHONY BLVD S
13F184381 22:20:32 40A AUDIBLE 1600 CATALPA ST
13F184382 22:21:20 99 NARCOTICS 1300 ST MARYS AVE
13F184383 22:26:45 30 TRAFFIC STOP 2100 PONTIAC ST E & ALEXANDER ST
13F184384 22:27:47 26 PI ACCIDENT 3100 DUPONT RD E & I 69 SB
13F184385 22:32:46 30 TRAFFIC STOP 400 HARRISON ST S & SUPERIOR ST W
13F184387 22:34:00 27 RECKLESS DRI 10800 ABOITE CENTER RD & HOMESTEAD
13F184386 22:34:06 30 TRAFFIC STOP 1700 KENWOOD AVE
13F184388 22:36:35 16V PICKUP VID 00 MAIN ST E
13F184389 22:37:18 46,96 1100 GLASGOW AVE
13F184390 22:45:14 62 PARTY ARMED 300 DEWALD ST W
13F184391 22:52:42 30 TRAFFIC STOP 2700 EVANS ST
13F184392 22:57:36 62 PARTY ARMED 5600 RIVER RUN TRL
13F184393 23:07:01 43 DISTURBANCE 4000 WAYNE TRACE
13F184394 23:10:28 30 TRAFFIC STOP 1200 RUDISILL BLVD E & BOWSER AVE
13F184396 23:13:48 43 DISTURBANCE 10200 LAKE SEBAGO DR
13F184395 23:14:34 30 TRAFFIC STOP 800 SPRING ST & SHERMAN BLVD
13F184397 23:15:33 30 TRAFFIC STOP 600 LEWIS ST E & HANNA ST S
13F184399 23:17:14 48,36 100 CROWN LN E
13F184398 23:18:57 44LM 2300 POINT WEST DR
13F184400 23:21:34 43 DISTURBANCE 200 WILLIAMS ST W
13F184405 23:21:49 911 HANG UP 7900 JEFFERSON BLVD W
13F184401 23:24:30 48,36 900 THIRD ST
13F184402 23:26:12 911 HANG UP 1400 KITCH ST
13F184403 23:28:20 50IP BURG I/P 3900 WENONAH LN
13F184404 23:29:29 911 HANG UP 3400 WEBSTER ST
13F184406 23:41:43 40A AUDIBLE 5600 COLDWATER RD
13F184407 23:43:55 46,96 2700 STARDALE DR
13F184408 23:46:14 103 UNWANTED 2000 BROADWAY
13F184409 23:53:26 40L LISTENING 1600 SPY RUN AVE
13F184410 23:55:13 46 DOMESTIC 700 ANDERSON AVE
Amber Alert

All-America City